Roanoke, VA

5:57 AM EST on December 06, 2019 (GMT -0500)
Roanoke Regional-Woodrum

Weather History for KROA - October, 2019

Change the Weather History Date:

Tuesday, October 29, 2019

  Actual Average Record
Temperature  
Mean Temperature 58 °F 54 °F  
Max Temperature 62 °F 65 °F 84 °F (1927)
Min Temperature 54 °F 43 °F 26 °F (1967)
Degree Days  
Heating Degree Days 7 11  
Month to date heating degree days 145 224  
Since 1 July heating degree days 146 273  
Cooling Degree Days 0 0  
Month to date cooling degree days 73 18  
Year to date cooling degree days 1757 1204  
Growing Degree Days 8 (Base 50)    
Moisture  
Dew Point 55 °F    
Average Humidity 88    
Maximum Humidity 94    
Minimum Humidity 80    
Precipitation  
Precipitation T in 0.10 in 1.68 in (1935)
Month to date precipitation 4.80 2.69  
Year to date precipitation 36.86 34.71  
Snow  
Snow 0.00 in - - ()
Month to date snowfall 0.0  
Since 1 July snowfall T  
Since 1 September snowfall 0.0  
Snow Depth 0.00 in    
Sea Level Pressure  
Sea Level Pressure 30.25 in    
Wind  
Wind Speed 2 mph ()    
Max Wind Speed 8 mph    
Max Gust Speed 9 mph    
Visibility 9.2 miles    
Events      
T = Trace of Precipitation, MM = Missing Value Source: Averaged Metar Reports

Daily Weather History Graph

Daily Weather History Graph

Search for Another Location

Airport or City:

Astronomy

Oct. 29, 2019 Rise Set
Actual Time 7:41 AM EDT 6:25 PM EDT
Civil Twilight 7:14 AM EDT 6:52 PM EDT
Nautical Twilight 6:43 AM EDT 7:22 PM EDT
Astronomical Twilight 6:13 AM EDT 7:53 PM EDT
Moon 9:11 AM EDT (10/29) 7:50 PM EDT (10/29)
Length of Visible Light 11h 37m
Length of Day
10h 44m
Waxing Crescent, 3% of the Moon is Illuminated
Oct 29
Waxing Crescent
Nov 4
First Quarter
Nov 12
Full
Nov 19
Last Quarter
Nov 26
New

Hourly Weather History & Observations

Time (EDT) Temp. Dew Point Humidity Pressure Visibility Wind Dir Wind Speed Gust Speed Precip Events Conditions
12:54 AM 57.0 °F 51.1 °F 81% 30.21 in 10.0 mi Calm Calm - N/A   Mostly Cloudy
1:54 AM 55.9 °F 51.1 °F 84% 30.20 in 10.0 mi Calm Calm - N/A   Scattered Clouds
2:54 AM 57.0 °F 51.1 °F 81% 30.20 in 10.0 mi Calm Calm - N/A   Overcast
3:54 AM 55.9 °F 52.0 °F 87% 30.20 in 10.0 mi Calm Calm - N/A   Overcast
4:54 AM 55.9 °F 52.0 °F 87% 30.21 in 10.0 mi Calm Calm - N/A   Overcast
5:28 AM 55.9 °F 52.0 °F 87% 30.24 in 10.0 mi Calm Calm - N/A   Overcast
5:54 AM 57.0 °F 53.1 °F 87% 30.23 in 10.0 mi ESE 3.5 mph - N/A   Overcast
6:54 AM 55.9 °F 53.1 °F 90% 30.23 in 10.0 mi SSE 5.8 mph - N/A   Overcast
7:20 AM 55.9 °F 54.0 °F 93% 30.25 in 10.0 mi SE 5.8 mph - N/A   Overcast
7:54 AM 55.9 °F 54.0 °F 93% 30.24 in 10.0 mi SE 3.5 mph - N/A   Overcast
8:54 AM 55.9 °F 54.0 °F 93% 30.26 in 10.0 mi SSE 4.6 mph - N/A   Overcast
9:50 AM 55.4 °F 53.6 °F 94% 30.28 in 2.5 mi Calm Calm - N/A   Overcast
9:54 AM 55.9 °F 54.0 °F 93% 30.27 in 2.5 mi SE 3.5 mph - N/A   Overcast
11:54 AM 57.9 °F 55.0 °F 90% 30.30 in 3.0 mi ESE 4.6 mph - 0.00 in   Overcast
12:54 PM 59.0 °F 55.0 °F 87% 30.28 in 10.0 mi SSE 3.5 mph - N/A   Overcast
1:54 PM 60.1 °F 55.9 °F 86% 30.25 in 10.0 mi Calm Calm - N/A   Overcast
2:54 PM 60.1 °F 55.9 °F 86% 30.25 in 10.0 mi ESE 4.6 mph - N/A   Overcast
3:54 PM 61.0 °F 57.0 °F 87% 30.24 in 10.0 mi ESE 5.8 mph - N/A   Overcast
4:54 PM 61.0 °F 55.9 °F 83% 30.24 in 10.0 mi ESE 6.9 mph - N/A   Overcast
5:54 PM 61.0 °F 55.9 °F 83% 30.25 in 10.0 mi ESE 5.8 mph - N/A   Overcast
6:22 PM 61.0 °F 55.9 °F 83% 30.26 in 10.0 mi ESE 5.8 mph - N/A   Overcast
6:54 PM 61.0 °F 55.9 °F 83% 30.25 in 10.0 mi SSE 3.5 mph - N/A   Overcast
7:54 PM 60.1 °F 57.0 °F 90% 30.26 in 10.0 mi SE 3.5 mph - N/A   Overcast
8:54 PM 60.1 °F 57.0 °F 90% 30.26 in 10.0 mi SE 4.6 mph - N/A   Overcast
9:47 PM 61.0 °F 57.0 °F 87% 30.28 in 10.0 mi Calm Calm - N/A   Overcast
9:54 PM 60.1 °F 57.0 °F 90% 30.27 in 10.0 mi Calm Calm - N/A   Overcast
10:54 PM 60.1 °F 57.0 °F 90% 30.28 in 10.0 mi Calm Calm - N/A   Overcast
11:01 PM 60.1 °F 57.0 °F 90% 30.29 in 10.0 mi Calm Calm - N/A   Overcast
11:54 PM 60.1 °F 57.0 °F 90% 30.26 in 10.0 mi SE 3.5 mph - N/A   Overcast